Location: Unspecified
(42.0587°N, 0.0000°E)
Time: 13:28:57
(UTC+00:00)

TECHNOSAT - Visible Passes

Search period start: 05 April 2026 00:00
Search period end: 15 April 2026 00:00
Orbit: 541 x 566 km, 97.4° (Epoch: 28 March)

Date Brightness Start Highest point End Pass type
(mag) Time Alt. Az. Time Alt. Az. Time Alt. Az.
5 Apr ? 02:34:11 10° ESE 02:36:40 16° ENE 02:39:09 10° NNE visible
5 Apr ? 04:09:46 29° SW 04:11:09 39° W 04:14:52 10° NNW visible
6 Apr ? 02:31:02 10° E 02:33:19 15° ENE 02:35:37 10° NNE visible
6 Apr ? 04:06:05 27° SSW 04:07:45 42° W 04:11:32 10° NNW visible
7 Apr ? 02:27:53 10° E 02:29:57 14° ENE 02:32:02 10° NNE visible
7 Apr ? 04:02:24 25° SSW 04:04:21 47° W 04:08:11 10° NNW visible
8 Apr ? 02:24:46 10° E 02:26:36 13° ENE 02:28:26 10° NE visible
8 Apr ? 03:58:42 23° SSW 04:00:57 51° W 04:04:49 10° NNW visible
9 Apr ? 02:21:43 10° E 02:23:14 12° ENE 02:24:45 10° NE visible
9 Apr ? 03:55:00 20° S 03:57:32 57° W 04:01:27 10° NNW visible
10 Apr ? 02:18:44 10° E 02:19:51 11° ENE 02:20:59 10° NE visible
10 Apr ? 03:51:18 18° S 03:54:07 63° W 03:58:04 10° NNW visible
11 Apr ? 02:16:04 10° ENE 02:16:29 10° ENE 02:16:53 10° NE visible
11 Apr ? 03:47:35 16° S 03:50:41 69° W 03:54:39 10° NNW visible
12 Apr ? 03:43:52 14° S 03:47:15 76° WSW 03:51:15 10° NNW visible
13 Apr ? 03:40:09 12° S 03:43:48 84° WSW 03:47:49 10° NNW visible
14 Apr ? 03:36:26 10° SSE 03:40:21 89° ENE 03:44:22 10° NNW visible
